Terminal Aerodrome Forecast
Issued by NWS

Home | Current Version | Previous Version | Text Only | Print | Product List | Glossary Off
Versions: 1 2 3 4 5 6 7 8 9 10 11 12 13 14 15 16 17 18 19 20 21 22 23 24 25 26

071
FTUS43 KABR 172153 AAA
TAFATY
TAF AMD
KATY 172153Z 1722/1818 31014KT P6SM SCT040
     FM180100 26006KT P6SM FEW250
     FM180400 18005KT P6SM SCT250
     FM180700 14011KT P6SM OVC070
     FM181000 15018G27KT P6SM OVC070 WS020/19055KT
     FM181700 23014KT P6SM BKN140 WS007/24010KT=

USA.gov is the U.S. government's official web portal to all federal, state and local government web resources and services.